QPF
0.00 0.00 0.00 0.00 0.00 0.00 0.00 0.00 0.00 0.00 0.00 0.01 0.01 0.01 0.01 0.01 0.00 0.00 0.00 0.00 0.00 0.00 0.00 0.01 0.01 0.00 0.00 0.00 0.00 0.00 0.00 0.00 0.00 0.00 0.00 0.00 0.00 0.00 0.00 0.00 0.00 0.00 0.00
0.00 0.00 0.00 0.00 0.00 0.00 0.00 0.00 0.00 0.00 0.00 0.00 0.00 0.01 0.01 0.00 0.00 0.00 0.00 0.00 0.00 0.00 0.00 0.00 0.00 0.00 0.00 0.00 0.00 0.00 0.00 0.00 0.00 0.00 0.00 0.00 0.00 0.00 0.00 0.00 0.00 0.00 0.00
0.00 0.00 0.00 0.00 0.00 0.00 0.00 0.00 0.00 0.00 0.00 0.00 0.00 0.00 0.00 0.00 0.00 0.00 0.00 0.00 0.00 0.00 0.00 0.00 0.00 0.00 0.00 0.00 0.00 0.00 0.00 0.00 0.00 0.00 0.00 0.00 0.00 0.00 0.00 0.00 0.00 0.00 0.00
0.00 0.00 0.00 0.00 0.00 0.00 0.00 0.00 0.00 0.00 0.00 0.00 0.00 0.00 0.00 0.00 0.00 0.00 0.00 0.00 0.00 0.00 0.00 0.00 0.00 0.00 0.00 0.00 0.00 0.00 0.00 0.00 0.00 0.00 0.00 0.00 0.00 0.00 0.00 0.00 0.00 0.00 0.00
0.00 0.00 0.00 0.00 0.00 0.00 0.00 0.00 0.00 0.00 0.00 0.00 0.00 0.00 0.00 0.00 0.00 0.00 0.00 0.00 0.00 0.00 0.00 0.00 0.00 0.00 0.00 0.00 0.00 0.00 0.00 0.00 0.00 0.00 0.00 0.01 0.02 0.01 0.00 0.01 0.00 0.00 0.00
0.00 0.00 0.00 0.00 0.00 0.00 0.00 0.00 0.00 0.00 0.00 0.00 0.00 0.00 0.00 0.00 0.00 0.00 0.00 0.00 0.00 0.00 0.00 0.00 0.00 0.00 0.00 0.00 0.00 0.00 0.00 0.00 0.00 0.00 0.00 0.01 0.03 0.02 0.01 0.05 0.05 0.03 0.02
0.00 0.00 0.00 0.00 0.00 0.00 0.00 0.00 0.00 0.00 0.00 0.00 0.00 0.00 0.00 0.00 0.00 0.00 0.00 0.00 0.00 0.00 0.00 0.00 0.00 0.00 0.00 0.00 0.00 0.00 0.00 0.00 0.00 0.01 0.00 0.00 0.01 0.01 0.02 0.08 0.12 0.10 0.09
0.00 0.00 0.00 0.00 0.00 0.00 0.00 0.00 0.00 0.00 0.00 0.00 0.00 0.00 0.00 0.00 0.00 0.00 0.00 0.00 0.00 0.00 0.01 0.01 0.01 0.01 0.01 0.01 0.01 0.01 0.02 0.01 0.00 0.00 0.00 0.00 0.00 0.00 0.02 0.08 0.14 0.13 0.11
0.00 0.00 0.00 0.00 0.00 0.00 0.00 0.00 0.00 0.00 0.00 0.00 0.00 0.00 0.00 0.00 0.00 0.00 0.00 0.00 0.00 0.01 0.01 0.01 0.01 0.01 0.01 0.01 0.00 0.01 0.01 0.01 0.01 0.01 0.00 0.00 0.00 0.00 0.01 0.06 0.10 0.11 0.10
0.00 0.00 0.00 0.00 0.00 0.00 0.00 0.00 0.00 0.00 0.00 0.00 0.00 0.00 0.00 0.00 0.00 0.00 0.00 0.00 0.00 0.01 0.01 0.01 0.01 0.01 0.01 0.01 0.00 0.00 0.00 0.00 0.00 0.00 0.00 0.00 0.00 0.00 0.01 0.03 0.06 0.08 0.08
0.00 0.00 0.00 0.00 0.00 0.00 0.00 0.00 0.00 0.00 0.00 0.00 0.00 0.00 0.00 0.00 0.00 0.00 0.00 0.00 0.01 0.02 0.02 0.02 0.03 0.03 0.02 0.01 0.01 0.01 0.00 0.00 0.00 0.00 0.00 0.00 0.01 0.02 0.03 0.04 0.04 0.05 0.08
0.00 0.00 0.00 0.00 0.00 0.00 0.00 0.00 0.00 0.00 0.00 0.00 0.00 0.00 0.01 0.01 0.01 0.00 0.00 0.00 0.02 0.05 0.04 0.05 0.06 0.04 0.04 0.03 0.05 0.04 0.01 0.01 0.01 0.01 0.01 0.02 0.03 0.07 0.10 0.08 0.06 0.05 0.06
0.00 0.00 0.00 0.00 0.00 0.00 0.00 0.00 0.00 0.00 0.00 0.00 0.00 0.00 0.00 0.00 0.00 0.00 0.00 0.00 0.01 0.02 0.03 0.05 0.08 0.06 0.08 0.09 0.07 0.07 0.03 0.02 0.02 0.02 0.02 0.03 0.04 0.09 0.12 0.10 0.08 0.06 0.05
0.00 0.00 0.00 0.00 0.00 0.00 0.00 0.00 0.00 0.00 0.00 0.00 0.00 0.00 0.00 0.00 0.00 0.00 0.00 0.00 0.00 0.01 0.04 0.07 0.11 0.10 0.07 0.05 0.05 0.05 0.04 0.06 0.05 0.06 0.08 0.04 0.05 0.07 0.10 0.09 0.07 0.05 0.05
0.00 0.00 0.00 0.00 0.00 0.00 0.00 0.00 0.00 0.00 0.00 0.00 0.00 0.00 0.00 0.00 0.00 0.00 0.00 0.00 0.01 0.01 0.03 0.05 0.05 0.05 0.04 0.02 0.02 0.02 0.04 0.05 0.06 0.09 0.08 0.07 0.05 0.04 0.05 0.07 0.06 0.05 0.05
0.00 0.00 0.00 0.00 0.00 0.00 0.00 0.00 0.00 0.00 0.00 0.00 0.00 0.00 0.00 0.01 0.01 0.01 0.01 0.02 0.02 0.03 0.04 0.03 0.03 0.04 0.03 0.02 0.01 0.01 0.02 0.03 0.04 0.07 0.07 0.06 0.02 0.01 0.01 0.03 0.04 0.05 0.05
0.00 0.00 0.00 0.00 0.00 0.00 0.00 0.00 0.00 0.00 0.00 0.00 0.00 0.01 0.01 0.02 0.04 0.05 0.04 0.04 0.05 0.06 0.06 0.05 0.04 0.04 0.02 0.02 0.01 0.00 0.00 0.01 0.02 0.03 0.03 0.03 0.01 0.00 0.00 0.00 0.01 0.02 0.03
0.00 0.00 0.00 0.00 0.00 0.00 0.00 0.00 0.00 0.00 0.01 0.02 0.03 0.04 0.05 0.07 0.09 0.11 0.09 0.08 0.12 0.10 0.08 0.08 0.07 0.05 0.04 0.03 0.02 0.01 0.00 0.00 0.00 0.00 0.01 0.01 0.01 0.00 0.00 0.00 0.01 0.01 0.02
0.00 0.01 0.01 0.00 0.01 0.01 0.01 0.01 0.01 0.01 0.02 0.05 0.08 0.09 0.12 0.14 0.16 0.18 0.14 0.14 0.14 0.11 0.11 0.07 0.07 0.07 0.05 0.05 0.04 0.03 0.01 0.01 0.00 0.00 0.00 0.00 0.00 0.00 0.00 0.00 0.00 0.01 0.02
0.00 0.00 0.01 0.01 0.02 0.04 0.05 0.04 0.05 0.06 0.07 0.10 0.14 0.19 0.23 0.23 0.23 0.23 0.19 0.17 0.14 0.11 0.10 0.09 0.07 0.06 0.05 0.05 0.04 0.02 0.01 0.00 0.00 0.00 0.00 0.00 0.00 0.00 0.00 0.01 0.04 0.02 0.01
0.02 0.03 0.05 0.06 0.06 0.09 0.11 0.12 0.18 0.23 0.29 0.30 0.28 0.27 0.27 0.27 0.27 0.27 0.23 0.18 0.13 0.09 0.07 0.06 0.04 0.03 0.03 0.04 0.03 0.02 0.01 0.00 0.00 0.00 0.00 0.00 0.00 0.00 0.00 0.01 0.04 0.05 0.04
0.03 0.05 0.07 0.08 0.11 0.15 0.21 0.28 0.37 0.44 0.45 0.43 0.42 0.41 0.39 0.38 0.37 0.33 0.28 0.20 0.11 0.06 0.04 0.03 0.02 0.02 0.01 0.03 0.04 0.04 0.01 0.00 0.00 0.00 0.00 0.00 0.00 0.01 0.01 0.01 0.03 0.07 0.07
0.09 0.10 0.10 0.09 0.11 0.16 0.22 0.31 0.42 0.45 0.47 0.50 0.52 0.53 0.49 0.42 0.35 0.30 0.24 0.16 0.09 0.05 0.03 0.01 0.01 0.01 0.01 0.01 0.04 0.06 0.05 0.02 0.01 0.00 0.01 0.01 0.02 0.03 0.01 0.01 0.02 0.05 0.06
0.07 0.08 0.08 0.09 0.11 0.13 0.17 0.25 0.33 0.44 0.49 0.54 0.58 0.56 0.50 0.43 0.36 0.28 0.22 0.15 0.08 0.04 0.02 0.01 0.00 0.01 0.01 0.02 0.03 0.05 0.09 0.10 0.09 0.04 0.03 0.04 0.05 0.04 0.03 0.02 0.02 0.02 0.03
0.03 0.04 0.05 0.08 0.09 0.10 0.13 0.17 0.24 0.36 0.47 0.54 0.53 0.49 0.43 0.36 0.30 0.23 0.16 0.11 0.06 0.03 0.01 0.00 0.00 0.01 0.01 0.02 0.03 0.04 0.05 0.09 0.11 0.12 0.08 0.09 0.10 0.08 0.06 0.04 0.02 0.01 0.02
0.02 0.02 0.03 0.05 0.06 0.08 0.10 0.13 0.21 0.34 0.47 0.53 0.53 0.51 0.46 0.37 0.29 0.23 0.16 0.09 0.05 0.02 0.01 0.01 0.01 0.01 0.01 0.02 0.04 0.05 0.06 0.09 0.13 0.15 0.14 0.14 0.14 0.11 0.09 0.07 0.05 0.03 0.02
MSLP
1011.79 1011.98 1012.36 1012.87 1013.44 1013.97 1014.39 1014.67 1014.83 1014.89 1014.93 1015.00 1015.15 1015.39 1015.71 1016.06 1016.39 1016.65 1016.82 1016.90 1016.91 1016.89 1016.87 1016.88 1016.94 1017.04 1017.15 1017.26 1017.35 1017.39 1017.40 1017.39 1017.38 1017.39 1017.43 1017.50 1017.60 1017.70 1017.80 1017.89 1017.94 1017.97 1017.99
1011.56 1011.85 1012.33 1012.93 1013.56 1014.14 1014.58 1014.86 1014.99 1015.02 1015.02 1015.07 1015.21 1015.45 1015.78 1016.14 1016.47 1016.74 1016.91 1016.98 1016.97 1016.94 1016.93 1016.96 1017.05 1017.18 1017.34 1017.48 1017.58 1017.63 1017.63 1017.60 1017.55 1017.53 1017.55 1017.60 1017.69 1017.81 1017.92 1018.02 1018.08 1018.12 1018.14
1011.34 1011.72 1012.28 1012.96 1013.65 1014.26 1014.73 1015.02 1015.15 1015.17 1015.17 1015.21 1015.34 1015.58 1015.90 1016.24 1016.56 1016.80 1016.94 1016.98 1016.96 1016.93 1016.92 1016.98 1017.10 1017.27 1017.47 1017.63 1017.75 1017.79 1017.76 1017.69 1017.61 1017.55 1017.54 1017.57 1017.66 1017.78 1017.90 1018.02 1018.10 1018.16 1018.19
1011.14 1011.59 1012.22 1012.95 1013.69 1014.34 1014.83 1015.14 1015.30 1015.34 1015.36 1015.41 1015.55 1015.77 1016.07 1016.38 1016.66 1016.85 1016.94 1016.95 1016.91 1016.88 1016.89 1016.97 1017.13 1017.34 1017.55 1017.73 1017.84 1017.86 1017.80 1017.69 1017.56 1017.46 1017.41 1017.43 1017.52 1017.64 1017.78 1017.91 1018.03 1018.11 1018.17
1010.98 1011.48 1012.15 1012.92 1013.68 1014.36 1014.88 1015.23 1015.42 1015.51 1015.56 1015.64 1015.78 1016.00 1016.27 1016.54 1016.76 1016.90 1016.94 1016.92 1016.86 1016.83 1016.86 1016.97 1017.16 1017.39 1017.62 1017.80 1017.88 1017.86 1017.76 1017.59 1017.42 1017.28 1017.21 1017.22 1017.29 1017.42 1017.58 1017.74 1017.88 1017.99 1018.09
1010.89 1011.41 1012.09 1012.87 1013.64 1014.33 1014.88 1015.27 1015.50 1015.64 1015.73 1015.84 1016.00 1016.21 1016.45 1016.67 1016.84 1016.93 1016.93 1016.88 1016.82 1016.80 1016.85 1016.99 1017.20 1017.44 1017.66 1017.81 1017.86 1017.79 1017.63 1017.42 1017.20 1017.03 1016.94 1016.94 1017.03 1017.17 1017.34 1017.51 1017.67 1017.82 1017.94
1010.89 1011.41 1012.07 1012.83 1013.58 1014.27 1014.83 1015.24 1015.51 1015.70 1015.83 1015.97 1016.15 1016.35 1016.55 1016.73 1016.86 1016.91 1016.88 1016.82 1016.77 1016.77 1016.84 1017.00 1017.22 1017.46 1017.65 1017.76 1017.76 1017.63 1017.42 1017.16 1016.91 1016.73 1016.63 1016.64 1016.73 1016.89 1017.07 1017.26 1017.43 1017.58 1017.71
1011.00 1011.49 1012.11 1012.81 1013.52 1014.18 1014.72 1015.14 1015.44 1015.65 1015.81 1015.98 1016.15 1016.35 1016.53 1016.68 1016.77 1016.80 1016.76 1016.71 1016.67 1016.69 1016.79 1016.96 1017.18 1017.39 1017.55 1017.60 1017.54 1017.36 1017.10 1016.81 1016.55 1016.37 1016.29 1016.31 1016.42 1016.59 1016.78 1016.97 1017.13 1017.27 1017.40
1011.21 1011.65 1012.20 1012.83 1013.47 1014.07 1014.57 1014.96 1015.26 1015.47 1015.65 1015.82 1016.00 1016.18 1016.34 1016.47 1016.55 1016.57 1016.54 1016.50 1016.49 1016.53 1016.64 1016.81 1017.01 1017.19 1017.30 1017.30 1017.18 1016.95 1016.67 1016.37 1016.12 1015.95 1015.90 1015.96 1016.10 1016.29 1016.48 1016.66 1016.80 1016.91 1017.01
1011.47 1011.86 1012.34 1012.88 1013.44 1013.95 1014.38 1014.73 1014.99 1015.19 1015.35 1015.51 1015.68 1015.84 1015.99 1016.11 1016.18 1016.20 1016.19 1016.18 1016.19 1016.25 1016.36 1016.52 1016.69 1016.83 1016.89 1016.84 1016.67 1016.42 1016.13 1015.84 1015.62 1015.50 1015.49 1015.59 1015.76 1015.97 1016.16 1016.32 1016.43 1016.50 1016.55
1011.73 1012.07 1012.48 1012.94 1013.40 1013.82 1014.17 1014.45 1014.65 1014.81 1014.95 1015.08 1015.22 1015.37 1015.51 1015.62 1015.69 1015.73 1015.74 1015.75 1015.77 1015.84 1015.95 1016.09 1016.22 1016.31 1016.33 1016.24 1016.05 1015.80 1015.51 1015.26 1015.08 1015.01 1015.06 1015.20 1015.41 1015.63 1015.82 1015.96 1016.04 1016.06 1016.06
1011.92 1012.23 1012.59 1012.98 1013.35 1013.68 1013.94 1014.14 1014.28 1014.38 1014.47 1014.57 1014.69 1014.82 1014.95 1015.06 1015.14 1015.20 1015.22 1015.25 1015.28 1015.34 1015.44 1015.54 1015.64 1015.69 1015.67 1015.56 1015.37 1015.12 1014.87 1014.66 1014.53 1014.51 1014.61 1014.79 1015.02 1015.26 1015.45 1015.57 1015.62 1015.61 1015.57
1011.98 1012.29 1012.63 1012.96 1013.26 1013.51 1013.70 1013.83 1013.90 1013.94 1013.99 1014.05 1014.14 1014.25 1014.38 1014.50 1014.59 1014.66 1014.70 1014.73 1014.77 1014.82 1014.88 1014.95 1015.01 1015.02 1014.98 1014.86 1014.68 1014.46 1014.25 1014.08 1013.99 1014.01 1014.14 1014.34 1014.59 1014.83 1015.02 1015.13 1015.17 1015.14 1015.08
1011.89 1012.22 1012.55 1012.86 1013.12 1013.32 1013.45 1013.52 1013.54 1013.54 1013.54 1013.57 1013.63 1013.74 1013.87 1013.99 1014.10 1014.19 1014.24 1014.27 1014.29 1014.32 1014.35 1014.38 1014.40 1014.39 1014.33 1014.21 1014.05 1013.86 1013.68 1013.54 1013.48 1013.51 1013.64 1013.84 1014.08 1014.31 1014.49 1014.61 1014.66 1014.64 1014.59
1011.64 1012.00 1012.35 1012.66 1012.92 1013.10 1013.20 1013.23 1013.22 1013.18 1013.15 1013.16 1013.22 1013.32 1013.45 1013.60 1013.72 1013.82 1013.88 1013.91 1013.91 1013.90 1013.89 1013.89 1013.87 1013.84 1013.77 1013.66 1013.52 1013.35 1013.19 1013.06 1012.99 1013.00 1013.09 1013.26 1013.46 1013.67 1013.85 1013.98 1014.06 1014.08 1014.07
1011.28 1011.68 1012.05 1012.38 1012.65 1012.83 1012.93 1012.96 1012.93 1012.88 1012.84 1012.85 1012.90 1013.01 1013.16 1013.32 1013.47 1013.58 1013.65 1013.67 1013.65 1013.61 1013.56 1013.51 1013.46 1013.41 1013.33 1013.23 1013.09 1012.93 1012.77 1012.61 1012.50 1012.46 1012.48 1012.57 1012.72 1012.89 1013.06 1013.21 1013.33 1013.41 1013.48
1010.87 1011.28 1011.68 1012.03 1012.32 1012.53 1012.65 1012.69 1012.67 1012.63 1012.60 1012.61 1012.68 1012.80 1012.97 1013.16 1013.33 1013.46 1013.53 1013.53 1013.49 1013.42 1013.33 1013.25 1013.17 1013.09 1013.01 1012.90 1012.76 1012.59 1012.39 1012.19 1012.01 1011.88 1011.80 1011.80 1011.86 1011.98 1012.13 1012.30 1012.47 1012.64 1012.79
1010.49 1010.89 1011.28 1011.65 1011.96 1012.19 1012.34 1012.40 1012.41 1012.39 1012.38 1012.41 1012.50 1012.65 1012.85 1013.06 1013.26 1013.41 1013.48 1013.49 1013.42 1013.32 1013.20 1013.07 1012.96 1012.86 1012.76 1012.64 1012.49 1012.29 1012.05 1011.78 1011.51 1011.27 1011.08 1010.97 1010.94 1011.00 1011.13 1011.31 1011.53 1011.77 1012.01
1010.19 1010.54 1010.91 1011.26 1011.57 1011.82 1012.00 1012.09 1012.13 1012.14 1012.16 1012.22 1012.34 1012.53 1012.75 1013.00 1013.22 1013.39 1013.48 1013.48 1013.40 1013.27 1013.12 1012.96 1012.82 1012.69 1012.57 1012.43 1012.25 1012.02 1011.73 1011.39 1011.03 1010.68 1010.37 1010.15 1010.03 1010.03 1010.12 1010.31 1010.57 1010.87 1011.19
1010.01 1010.28 1010.58 1010.90 1011.19 1011.44 1011.62 1011.74 1011.81 1011.86 1011.91 1012.01 1012.16 1012.38 1012.64 1012.92 1013.17 1013.36 1013.46 1013.47 1013.39 1013.24 1013.07 1012.88 1012.71 1012.55 1012.41 1012.24 1012.04 1011.77 1011.44 1011.04 1010.60 1010.16 1009.76 1009.45 1009.25 1009.18 1009.24 1009.42 1009.69 1010.03 1010.39
1009.96 1010.12 1010.33 1010.57 1010.82 1011.04 1011.22 1011.35 1011.45 1011.52 1011.62 1011.75 1011.94 1012.19 1012.49 1012.80 1013.08 1013.30 1013.42 1013.44 1013.36 1013.21 1013.01 1012.80 1012.61 1012.43 1012.26 1012.08 1011.86 1011.57 1011.21 1010.77 1010.29 1009.79 1009.33 1008.95 1008.69 1008.56 1008.58 1008.74 1009.00 1009.33 1009.71
1010.01 1010.05 1010.15 1010.29 1010.47 1010.64 1010.80 1010.94 1011.05 1011.15 1011.28 1011.44 1011.67 1011.95 1012.28 1012.62 1012.93 1013.17 1013.32 1013.36 1013.29 1013.14 1012.94 1012.72 1012.52 1012.32 1012.14 1011.95 1011.72 1011.43 1011.06 1010.62 1010.12 1009.61 1009.12 1008.71 1008.41 1008.25 1008.23 1008.34 1008.56 1008.85 1009.20
1010.13 1010.04 1010.02 1010.06 1010.15 1010.27 1010.40 1010.52 1010.64 1010.76 1010.91 1011.11 1011.36 1011.67 1012.02 1012.39 1012.72 1012.99 1013.15 1013.21 1013.16 1013.03 1012.84 1012.63 1012.42 1012.22 1012.04 1011.85 1011.63 1011.35 1011.01 1010.59 1010.12 1009.63 1009.15 1008.75 1008.43 1008.24 1008.18 1008.24 1008.39 1008.62 1008.89
1010.26 1010.07 1009.94 1009.89 1009.90 1009.95 1010.04 1010.14 1010.26 1010.40 1010.57 1010.78 1011.05 1011.37 1011.73 1012.11 1012.45 1012.73 1012.92 1013.00 1012.98 1012.87 1012.70 1012.51 1012.31 1012.12 1011.95 1011.77 1011.58 1011.33 1011.03 1010.66 1010.24 1009.80 1009.38 1009.00 1008.69 1008.49 1008.38 1008.38 1008.45 1008.58 1008.76
1010.37 1010.11 1009.90 1009.77 1009.71 1009.71 1009.76 1009.85 1009.96 1010.10 1010.27 1010.49 1010.76 1011.08 1011.43 1011.79 1012.13 1012.42 1012.62 1012.72 1012.73 1012.65 1012.51 1012.35 1012.17 1012.01 1011.86 1011.70 1011.53 1011.33 1011.08 1010.77 1010.42 1010.05 1009.69 1009.35 1009.07 1008.86 1008.72 1008.65 1008.63 1008.66 1008.73
1010.44 1010.14 1009.89 1009.71 1009.60 1009.57 1009.59 1009.66 1009.77 1009.90 1010.07 1010.28 1010.53 1010.83 1011.15 1011.48 1011.79 1012.06 1012.26 1012.38 1012.41 1012.36 1012.27 1012.14 1012.00 1011.87 1011.74 1011.61 1011.47 1011.31 1011.11 1010.86 1010.59 1010.28 1009.98 1009.70 1009.44 1009.23 1009.06 1008.93 1008.83 1008.76 1008.72
Thickness
5837 5830 5817 5814 5811 5808 5806 5803 5800 5797 5794 5791 5788 5785 5782 5779 5777 5774 5772 5771 5769 5767 5766 5765 5763 5761 5760 5758 5756 5754 5753 5751 5750 5749 5747 5746 5745 5744 5743 5744 5744 5745 5741
5843 5832 5819 5815 5812 5809 5806 5804 5801 5797 5794 5791 5788 5785 5783 5780 5777 5775 5773 5771 5769 5767 5765 5764 5762 5761 5759 5757 5755 5754 5752 5751 5750 5748 5748 5746 5745 5743 5743 5743 5744 5745 5741
5843 5833 5822 5816 5813 5810 5807 5804 5801 5798 5795 5791 5788 5785 5783 5780 5778 5775 5773 5771 5769 5767 5765 5763 5762 5760 5758 5756 5754 5753 5751 5750 5749 5748 5749 5753 5748 5744 5742 5742 5741 5741 5740
5843 5834 5826 5818 5814 5810 5808 5804 5801 5798 5795 5792 5788 5785 5783 5780 5778 5776 5773 5771 5769 5767 5764 5763 5761 5759 5757 5755 5753 5752 5751 5749 5749 5749 5753 5754 5752 5746 5743 5742 5741 5740 5739
5842 5835 5827 5818 5814 5811 5808 5805 5801 5797 5794 5791 5788 5785 5782 5780 5778 5776 5773 5771 5769 5767 5764 5762 5760 5758 5756 5754 5753 5751 5750 5749 5749 5750 5755 5753 5752 5747 5744 5743 5742 5741 5740
5841 5836 5826 5818 5814 5811 5808 5804 5801 5797 5793 5790 5787 5785 5782 5780 5778 5776 5774 5771 5769 5767 5765 5763 5760 5758 5756 5754 5753 5752 5750 5749 5750 5755 5757 5754 5754 5748 5746 5745 5744 5742 5741
5842 5836 5826 5817 5813 5810 5807 5803 5800 5796 5792 5789 5786 5784 5782 5780 5778 5776 5774 5772 5769 5767 5765 5763 5761 5759 5756 5755 5753 5752 5751 5751 5752 5758 5757 5756 5754 5750 5747 5746 5745 5745 5743
5842 5836 5825 5815 5812 5808 5805 5801 5798 5795 5791 5788 5786 5783 5782 5780 5778 5776 5774 5772 5770 5768 5766 5764 5762 5760 5757 5755 5754 5753 5752 5751 5756 5759 5758 5758 5756 5751 5748 5747 5747 5746 5745
5840 5834 5825 5817 5811 5806 5803 5799 5796 5793 5790 5788 5786 5783 5781 5780 5778 5776 5775 5773 5771 5769 5767 5765 5763 5761 5759 5757 5755 5753 5753 5752 5754 5760 5761 5760 5757 5752 5749 5748 5748 5748 5747
5834 5830 5825 5819 5814 5808 5804 5798 5795 5793 5790 5788 5786 5784 5782 5780 5778 5777 5776 5774 5772 5770 5769 5767 5765 5763 5761 5759 5757 5755 5754 5753 5757 5763 5763 5762 5757 5752 5750 5749 5749 5749 5748
5826 5825 5823 5819 5813 5810 5807 5802 5796 5792 5790 5788 5786 5783 5781 5783 5783 5780 5778 5775 5772 5771 5770 5768 5767 5765 5764 5763 5761 5759 5757 5760 5766 5766 5765 5762 5757 5753 5751 5750 5750 5749 5749
5819 5819 5820 5818 5812 5809 5807 5803 5799 5796 5793 5790 5790 5787 5784 5784 5783 5783 5779 5775 5773 5771 5771 5770 5769 5768 5767 5770 5770 5764 5765 5767 5767 5767 5766 5761 5757 5754 5752 5752 5751 5750 5750
5819 5817 5815 5812 5809 5808 5806 5803 5800 5799 5796 5792 5790 5787 5785 5785 5783 5782 5781 5779 5775 5773 5774 5775 5773 5773 5773 5772 5771 5770 5769 5770 5769 5768 5768 5762 5758 5756 5754 5753 5753 5752 5751
5818 5816 5813 5809 5805 5803 5803 5802 5799 5797 5795 5793 5790 5786 5787 5784 5783 5782 5780 5780 5778 5777 5776 5774 5773 5774 5773 5773 5772 5771 5771 5769 5769 5768 5765 5762 5759 5757 5756 5755 5754 5753 5752
5816 5814 5811 5806 5802 5798 5797 5796 5796 5796 5796 5792 5789 5786 5784 5783 5782 5781 5778 5775 5776 5777 5775 5774 5774 5774 5773 5773 5773 5773 5771 5770 5769 5768 5766 5763 5760 5758 5757 5756 5755 5754 5753
5816 5813 5811 5804 5799 5795 5792 5791 5792 5792 5790 5789 5788 5785 5781 5780 5778 5777 5775 5773 5774 5773 5773 5772 5772 5772 5772 5773 5772 5771 5770 5771 5770 5768 5768 5766 5763 5761 5759 5757 5756 5755 5754
5816 5814 5807 5802 5798 5793 5789 5788 5789 5789 5788 5786 5784 5781 5777 5775 5773 5771 5771 5771 5771 5770 5768 5767 5769 5769 5769 5770 5770 5770 5770 5770 5769 5768 5767 5767 5766 5764 5761 5759 5757 5756 5754
5813 5809 5805 5802 5797 5791 5787 5785 5786 5786 5785 5783 5780 5777 5773 5770 5767 5765 5765 5766 5766 5765 5765 5764 5763 5765 5765 5765 5766 5767 5769 5770 5769 5768 5767 5767 5766 5766 5765 5761 5758 5756 5754
5807 5804 5800 5797 5794 5789 5785 5782 5780 5779 5778 5776 5773 5771 5768 5764 5761 5758 5757 5758 5758 5759 5759 5758 5760 5759 5759 5759 5761 5763 5766 5768 5769 5769 5768 5767 5766 5764 5764 5763 5759 5757 5754
5801 5798 5794 5791 5789 5786 5781 5777 5774 5772 5771 5769 5766 5763 5760 5757 5755 5751 5749 5749 5749 5750 5751 5751 5751 5752 5752 5754 5757 5760 5762 5765 5767 5768 5767 5767 5767 5766 5764 5763 5761 5758 5754
5792 5789 5787 5784 5783 5780 5776 5772 5768 5765 5764 5762 5759 5756 5754 5751 5748 5745 5740 5739 5740 5741 5742 5744 5745 5746 5747 5750 5749 5753 5760 5764 5766 5765 5766 5766 5767 5766 5764 5761 5759 5758 5756
5781 5780 5779 5778 5777 5775 5773 5770 5766 5763 5761 5759 5755 5750 5746 5743 5738 5736 5732 5731 5730 5731 5732 5735 5737 5738 5741 5743 5740 5741 5747 5755 5761 5765 5762 5761 5761 5761 5761 5759 5756 5754 5752
5770 5770 5771 5771 5770 5769 5767 5764 5760 5755 5752 5750 5747 5743 5740 5735 5730 5727 5724 5721 5720 5721 5725 5727 5729 5730 5732 5735 5736 5732 5733 5740 5746 5754 5755 5754 5752 5751 5752 5753 5751 5749 5746
5760 5762 5761 5761 5760 5759 5757 5754 5751 5745 5743 5743 5740 5737 5732 5727 5722 5718 5714 5712 5712 5715 5717 5720 5725 5725 5724 5727 5730 5729 5727 5728 5724 5733 5743 5744 5743 5741 5742 5742 5743 5742 5740
5749 5749 5750 5749 5749 5748 5746 5744 5741 5739 5737 5735 5731 5726 5721 5718 5715 5710 5707 5704 5704 5708 5711 5713 5715 5717 5720 5720 5721 5722 5722 5721 5719 5715 5722 5728 5730 5733 5734 5734 5733 5733 5732
5738 5738 5738 5737 5736 5736 5734 5733 5730 5728 5727 5723 5720 5716 5711 5709 5707 5702 5701 5699 5699 5702 5703 5706 5709 5711 5712 5712 5713 5714 5713 5712 5712 5710 5711 5715 5717 5723 5725 5726 5725 5725 5724